Location: Keppel Henge
(44.7900°N, 80.9447°W)
Time: 06:19:16
(UTC-05:00)

N. Korean satellite - Pass Details

Date: 08 October 2017
Orbit: 461 x 513 km, 97.2° (Epoch: 12 December)

Event Time Altitude Azimuth Distance (km) Brightness Sun altitude
Rises 20:12:58 0° 198° (SSW) 2,571 10.4 -15.4°
Reaches altitude 10° 20:15:26 10° 215° (SW) 1,684 9.7 -15.8°
Maximum altitude 20:18:14 21° 266° (W) 1,144 9.4 -16.3°
Drops below altitude 10° 20:21:02 10° 317° (NW) 1,671 10.0 -16.8°
Sets 20:23:27 0° 334° (NNW) 2,546 10.7 -17.2°
